owner,sensor,date,latitude,longitude,air_pressure(mBar),qcFlag 
TABS,ioos:station:wmo:42045:1,2003-05-01T00:10:00Z,26.2168,-96.4998,1000.97,11111222 
TABS,ioos:station:wmo:42045:1,2003-05-01T00:39:00Z,26.2168,-96.4998,996.78,11111222 
TABS,ioos:station:wmo:42045:1,2003-05-01T01:09:00Z,26.2168,-96.4998,995.19,11111222 
TABS,ioos:station:wmo:42045:1,2003-05-01T01:39:00Z,26.2168,-96.4998,995.25,11111222 
TABS,ioos:station:wmo:42045:1,2003-05-01T02:09:00Z,26.2168,-96.4998,996.02,11111222 
TABS,ioos:station:wmo:42045:1,2003-05-01T02:39:00Z,26.2168,-96.4998,997.35,11111222 
TABS,ioos:station:wmo:42045:1,2003-05-01T03:09:00Z,26.2168,-96.4998,999.19,11111222 
TABS,ioos:station:wmo:42045:1,2003-05-01T03:39:00Z,26.2168,-96.4998,1000.21,11111222 
TABS,ioos:station:wmo:42045:1,2003-05-01T04:09:00Z,26.2168,-96.4998,1001.41,11111222 
TABS,ioos:station:wmo:42045:1,2003-05-01T04:39:00Z,26.2168,-96.4998,1002.17,11111222 
TABS,ioos:station:wmo:42045:1,2003-05-01T05:09:00Z,26.2168,-96.4998,1002.68,11111222 
TABS,ioos:station:wmo:42045:1,2003-05-01T05:39:00Z,26.2168,-96.4998,1003.51,11111222 
TABS,ioos:station:wmo:42045:1,2003-05-01T06:09:00Z,26.2168,-96.4998,1003.57,11111222 
TABS,ioos:station:wmo:42045:1,2003-05-01T06:39:00Z,26.2168,-96.4998,1003.44,11111222 
TABS,ioos:station:wmo:42045:1,2003-05-01T07:10:00Z,26.2168,-96.4998,1005.03,11111222 
TABS,ioos:station:wmo:42045:1,2003-05-01T07:39:00Z,26.2168,-96.4998,1005.79,11111222 
TABS,ioos:station:wmo:42045:1,2003-05-01T08:09:00Z,26.2168,-96.4998,1006.55,11111222 
TABS,ioos:station:wmo:42045:1,2003-05-01T08:39:00Z,26.2168,-96.4998,1007.25,11111222 
TABS,ioos:station:wmo:42045:1,2003-05-01T09:09:00Z,26.2168,-96.4998,1007.12,11111222 
TABS,ioos:station:wmo:42045:1,2003-05-01T09:39:00Z,26.2168,-96.4998,1006.93,11111222 
TABS,ioos:station:wmo:42045:1,2003-05-01T10:09:00Z,26.2168,-96.4998,1006.87,11111222 
TABS,ioos:station:wmo:42045:1,2003-05-01T10:39:00Z,26.2168,-96.4998,1007.06,11111222 
TABS,ioos:station:wmo:42045:1,2003-05-01T11:09:00Z,26.2168,-96.4998,1007.06,11111222 
TABS,ioos:station:wmo:42045:1,2003-05-01T11:39:00Z,26.2168,-96.4998,1006.87,11111222 
TABS,ioos:station:wmo:42045:1,2003-05-01T12:09:00Z,26.2168,-96.4998,1007.25,11111222 
TABS,ioos:station:wmo:42045:1,2003-05-01T12:39:00Z,26.2168,-96.4998,1008.65,11111222 
TABS,ioos:station:wmo:42045:1,2003-05-01T13:09:00Z,26.2168,-96.4998,1013.03,11111222 
TABS,ioos:station:wmo:42045:1,2003-05-01T13:39:00Z,26.2168,-96.4998,1016.77,11111222 
TABS,ioos:station:wmo:42045:1,2003-05-01T14:09:00Z,26.2168,-96.4998,1019.25,11111222 
TABS,ioos:station:wmo:42045:1,2003-05-01T14:39:00Z,26.2168,-96.4998,1021.66,11111222 
TABS,ioos:station:wmo:42045:1,2003-05-01T15:09:00Z,26.2168,-96.4998,1021.09,11111222 
TABS,ioos:station:wmo:42045:1,2003-05-01T15:39:00Z,26.2168,-96.4998,1023.37,11111222 
TABS,ioos:station:wmo:42045:1,2003-05-01T16:09:00Z,26.2168,-96.4998,1017.72,11111222 
TABS,ioos:station:wmo:42045:1,2003-05-01T16:39:00Z,26.2168,-96.4998,1014.8,11111222 
TABS,ioos:station:wmo:42045:1,2003-05-01T17:09:00Z,26.2168,-96.4998,1018.11,11111222 
TABS,ioos:station:wmo:42045:1,2003-05-01T17:39:00Z,26.2168,-96.4998,1018.55,11111222 
TABS,ioos:station:wmo:42045:1,2003-05-01T18:09:00Z,26.2168,-96.4998,1025.6,11111222 
TABS,ioos:station:wmo:42045:1,2003-05-01T18:39:00Z,26.2168,-96.4998,1026.23,11111222 
TABS,ioos:station:wmo:42045:1,2003-05-01T19:09:00Z,26.2168,-96.4998,1025.21,11111222 
TABS,ioos:station:wmo:42045:1,2003-05-01T19:39:00Z,26.2168,-96.4998,1025.28,11111222 
TABS,ioos:station:wmo:42045:1,2003-05-01T20:09:00Z,26.2168,-96.4998,1025.53,11111222 
TABS,ioos:station:wmo:42045:1,2003-05-01T20:39:00Z,26.2168,-96.4998,1026.48,11111222 
TABS,ioos:station:wmo:42045:1,2003-05-01T21:09:00Z,26.2168,-96.4998,1026.1,11111222 
TABS,ioos:station:wmo:42045:1,2003-05-01T21:39:00Z,26.2168,-96.4998,1023.88,11111222 
TABS,ioos:station:wmo:42045:1,2003-05-01T22:09:00Z,26.2168,-96.4998,1019.95,11111222 
TABS,ioos:station:wmo:42045:1,2003-05-01T22:39:00Z,26.2168,-96.4998,1015.95,11111222 
TABS,ioos:station:wmo:42045:1,2003-05-01T23:09:00Z,26.2168,-96.4998,1006.43,11111222 
TABS,ioos:station:wmo:42045:1,2003-05-01T23:39:00Z,26.2168,-96.4998,996.4,11111222 
TABS,ioos:station:wmo:42045:1,2003-05-02T00:09:00Z,26.2168,-96.4998,992.91,11111222 
TABS,ioos:station:wmo:42045:1,2003-05-02T00:39:00Z,26.2168,-96.4998,991.51,11111222 
TABS,ioos:station:wmo:42045:1,2003-05-02T01:09:00Z,26.2168,-96.4998,990.68,11111222 
TABS,ioos:station:wmo:42045:1,2003-05-02T01:40:00Z,26.2168,-96.4998,991.7,11111222 
TABS,ioos:station:wmo:42045:1,2003-05-02T02:10:00Z,26.2168,-96.4998,992.65,11111222 
TABS,ioos:station:wmo:42045:1,2003-05-02T02:40:00Z,26.2168,-96.4998,994.37,11111222 
TABS,ioos:station:wmo:42045:1,2003-05-02T03:10:00Z,26.2168,-96.4998,996.02,11111222 
TABS,ioos:station:wmo:42045:1,2003-05-02T03:40:00Z,26.2168,-96.4998,997.29,11111222 
TABS,ioos:station:wmo:42045:1,2003-05-02T04:10:00Z,26.2168,-96.4998,998.36,11111222 
TABS,ioos:station:wmo:42045:1,2003-05-02T04:40:00Z,26.2168,-96.4998,1000.08,11111222 
TABS,ioos:station:wmo:42045:1,2003-05-02T05:10:00Z,26.2168,-96.4998,1000.33,11111222 
TABS,ioos:station:wmo:42045:1,2003-05-02T05:39:00Z,26.2168,-96.4998,1000.97,11111222 
TABS,ioos:station:wmo:42045:1,2003-05-02T06:10:00Z,26.2168,-96.4998,1002.3,11111222 
TABS,ioos:station:wmo:42045:1,2003-05-02T06:40:00Z,26.2168,-96.4998,1003.0,11111222 
TABS,ioos:station:wmo:42045:1,2003-05-02T07:09:00Z,26.2168,-96.4998,1003.63,11111222 
TABS,ioos:station:wmo:42045:1,2003-05-02T07:40:00Z,26.2168,-96.4998,1004.84,11111222 
TABS,ioos:station:wmo:42045:1,2003-05-02T08:09:00Z,26.2168,-96.4998,1005.41,11111222 
TABS,ioos:station:wmo:42045:1,2003-05-02T08:40:00Z,26.2168,-96.4998,1006.3,11111222 
TABS,ioos:station:wmo:42045:1,2003-05-02T09:09:00Z,26.2168,-96.4998,1006.36,11111222 
TABS,ioos:station:wmo:42045:1,2003-05-02T09:40:00Z,26.2168,-96.4998,1006.81,11111222 
TABS,ioos:station:wmo:42045:1,2003-05-02T10:10:00Z,26.2168,-96.4998,1007.25,11111222 
TABS,ioos:station:wmo:42045:1,2003-05-02T10:40:00Z,26.2168,-96.4998,1007.7,11111222 
TABS,ioos:station:wmo:42045:1,2003-05-02T11:10:00Z,26.2168,-96.4998,1008.14,11111222 
TABS,ioos:station:wmo:42045:1,2003-05-02T11:40:00Z,26.2168,-96.4998,1008.33,11111222 
TABS,ioos:station:wmo:42045:1,2003-05-02T12:09:00Z,26.2168,-96.4998,1009.09,11111222 
TABS,ioos:station:wmo:42045:1,2003-05-02T12:40:00Z,26.2168,-96.4998,1009.35,11111222 
TABS,ioos:station:wmo:42045:1,2003-05-02T13:09:00Z,26.2168,-96.4998,1010.3,11111222 
TABS,ioos:station:wmo:42045:1,2003-05-02T13:39:00Z,26.2168,-96.4998,1018.3,11111222 
TABS,ioos:station:wmo:42045:1,2003-05-02T14:09:00Z,26.2168,-96.4998,1018.93,11111222 
TABS,ioos:station:wmo:42045:1,2003-05-02T14:39:00Z,26.2168,-96.4998,1023.5,11111222 
TABS,ioos:station:wmo:42045:1,2003-05-02T15:10:00Z,26.2168,-96.4998,1031.63,11111222 
TABS,ioos:station:wmo:42045:1,2003-05-02T15:40:00Z,26.2168,-96.4998,1023.37,11111222 
TABS,ioos:station:wmo:42045:1,2003-05-02T16:09:00Z,26.2168,-96.4998,1024.26,11111222 
TABS,ioos:station:wmo:42045:1,2003-05-02T16:40:00Z,26.2168,-96.4998,1025.91,11111222 
TABS,ioos:station:wmo:42045:1,2003-05-02T17:10:00Z,26.2168,-96.4998,1025.98,11111222 
TABS,ioos:station:wmo:42045:1,2003-05-02T17:39:00Z,26.2168,-96.4998,1022.29,11111222 
TABS,ioos:station:wmo:42045:1,2003-05-02T18:09:00Z,26.2168,-96.4998,1022.29,11111222 
TABS,ioos:station:wmo:42045:1,2003-05-02T18:39:00Z,26.2168,-96.4998,1023.37,11111222 
TABS,ioos:station:wmo:42045:1,2003-05-02T19:09:00Z,26.2168,-96.4998,1016.26,11111222 
TABS,ioos:station:wmo:42045:1,2003-05-02T19:39:00Z,26.2168,-96.4998,1019.95,11111222 
TABS,ioos:station:wmo:42045:1,2003-05-02T20:10:00Z,26.2168,-96.4998,1029.34,11111222 
TABS,ioos:station:wmo:42045:1,2003-05-02T20:40:00Z,26.2168,-96.4998,1030.48,11111222 
TABS,ioos:station:wmo:42045:1,2003-05-02T21:09:00Z,26.2168,-96.4998,1030.74,11111222 
TABS,ioos:station:wmo:42045:1,2003-05-02T21:39:00Z,26.2168,-96.4998,1028.52,11111222 
TABS,ioos:station:wmo:42045:1,2003-05-02T22:09:00Z,26.2168,-96.4998,1024.96,11111222 
TABS,ioos:station:wmo:42045:1,2003-05-02T22:40:00Z,26.2168,-96.4998,1016.01,11111222 
TABS,ioos:station:wmo:42045:1,2003-05-02T23:10:00Z,26.2168,-96.4998,1014.11,11111222 
TABS,ioos:station:wmo:42045:1,2003-05-02T23:39:00Z,26.2168,-96.4998,1006.93,11111222 
TABS,ioos:station:wmo:42045:1,2003-05-03T00:10:00Z,26.2168,-96.4998,999.13,11111222 
TABS,ioos:station:wmo:42045:1,2003-05-03T00:40:00Z,26.2168,-96.4998,992.59,11111222 
TABS,ioos:station:wmo:42045:1,2003-05-03T01:09:00Z,26.2168,-96.4998,990.75,11111222 
TABS,ioos:station:wmo:42045:1,2003-05-03T01:40:00Z,26.2168,-96.4998,991.45,11111222 
TABS,ioos:station:wmo:42045:1,2003-05-03T02:09:00Z,26.2168,-96.4998,992.65,11111222 
TABS,ioos:station:wmo:42045:1,2003-05-03T02:39:00Z,26.2168,-96.4998,994.17,11111222 
TABS,ioos:station:wmo:42045:1,2003-05-03T03:09:00Z,26.2168,-96.4998,996.14,11111222 
TABS,ioos:station:wmo:42045:1,2003-05-03T03:40:00Z,26.2168,-96.4998,998.3,11111222 
TABS,ioos:station:wmo:42045:1,2003-05-03T04:09:00Z,26.2168,-96.4998,1000.14,11111222 
TABS,ioos:station:wmo:42045:1,2003-05-03T04:40:00Z,26.2168,-96.4998,1001.41,11111222 
TABS,ioos:station:wmo:42045:1,2003-05-03T05:09:00Z,26.2168,-96.4998,1002.17,11111222 
TABS,ioos:station:wmo:42045:1,2003-05-03T05:40:00Z,26.2168,-96.4998,1003.12,11111222 
TABS,ioos:station:wmo:42045:1,2003-05-03T06:09:00Z,26.2168,-96.4998,1003.32,11111222 
TABS,ioos:station:wmo:42045:1,2003-05-03T06:39:00Z,26.2168,-96.4998,1003.7,11111222 
TABS,ioos:station:wmo:42045:1,2003-05-03T07:10:00Z,26.2168,-96.4998,1004.9,11111222 
TABS,ioos:station:wmo:42045:1,2003-05-03T07:39:00Z,26.2168,-96.4998,1005.6,11111222 
TABS,ioos:station:wmo:42045:1,2003-05-03T08:09:00Z,26.2168,-96.4998,1006.11,11111222 
TABS,ioos:station:wmo:42045:1,2003-05-03T08:40:00Z,26.2168,-96.4998,1006.62,11111222 
TABS,ioos:station:wmo:42045:1,2003-05-03T09:10:00Z,26.2168,-96.4998,1007.19,11111222 
TABS,ioos:station:wmo:42045:1,2003-05-03T09:40:00Z,26.2168,-96.4998,1007.25,11111222 
TABS,ioos:station:wmo:42045:1,2003-05-03T10:09:00Z,26.2168,-96.4998,1007.31,11111222 
TABS,ioos:station:wmo:42045:1,2003-05-03T10:40:00Z,26.2168,-96.4998,1007.5,11111222 
TABS,ioos:station:wmo:42045:1,2003-05-03T11:09:00Z,26.2168,-96.4998,1008.14,11111222 
TABS,ioos:station:wmo:42045:1,2003-05-03T11:40:00Z,26.2168,-96.4998,1009.16,11111222 
TABS,ioos:station:wmo:42045:1,2003-05-03T12:39:00Z,26.2168,-96.4998,1013.03,11111222 
TABS,ioos:station:wmo:42045:1,2003-05-03T13:09:00Z,26.2168,-96.4998,1014.3,11111222 
TABS,ioos:station:wmo:42045:1,2003-05-03T13:39:00Z,26.2168,-96.4998,1014.3,11111222 
TABS,ioos:station:wmo:42045:1,2003-05-03T14:09:00Z,26.2168,-96.4998,1015.44,11111222 
TABS,ioos:station:wmo:42045:1,2003-05-03T14:39:00Z,26.2168,-96.4998,1017.22,11111222 
TABS,ioos:station:wmo:42045:1,2003-05-03T15:09:00Z,26.2168,-96.4998,1018.49,11111222 
TABS,ioos:station:wmo:42045:1,2003-05-03T15:39:00Z,26.2168,-96.4998,1018.42,11111222 
TABS,ioos:station:wmo:42045:1,2003-05-03T16:09:00Z,26.2168,-96.4998,1018.36,11111222 
TABS,ioos:station:wmo:42045:1,2003-05-03T16:40:00Z,26.2168,-96.4998,1016.9,11111222 
TABS,ioos:station:wmo:42045:1,2003-05-03T17:09:00Z,26.2168,-96.4998,1023.37,11111222 
TABS,ioos:station:wmo:42045:1,2003-05-03T17:39:00Z,26.2168,-96.4998,1031.5,11111222 
TABS,ioos:station:wmo:42045:1,2003-05-03T18:09:00Z,26.2168,-96.4998,1033.97,11111222 
TABS,ioos:station:wmo:42045:1,2003-05-03T18:39:00Z,26.2168,-96.4998,1026.55,11111222 
TABS,ioos:station:wmo:42045:1,2003-05-03T19:09:00Z,26.2168,-96.4998,1020.39,11111222 
TABS,ioos:station:wmo:42045:1,2003-05-03T19:39:00Z,26.2168,-96.4998,1031.37,11111222 
TABS,ioos:station:wmo:42045:1,2003-05-03T20:09:00Z,26.2168,-96.4998,1033.4,11111222 
TABS,ioos:station:wmo:42045:1,2003-05-03T20:39:00Z,26.2168,-96.4998,1032.32,11111222 
TABS,ioos:station:wmo:42045:1,2003-05-03T21:09:00Z,26.2168,-96.4998,1032.64,11111222 
TABS,ioos:station:wmo:42045:1,2003-05-03T21:39:00Z,26.2168,-96.4998,1029.91,11111222 
TABS,ioos:station:wmo:42045:1,2003-05-03T22:09:00Z,26.2168,-96.4998,1026.04,11111222 
TABS,ioos:station:wmo:42045:1,2003-05-03T22:39:00Z,26.2168,-96.4998,1020.33,11111222 
TABS,ioos:station:wmo:42045:1,2003-05-03T23:09:00Z,26.2168,-96.4998,1014.74,11111222 
TABS,ioos:station:wmo:42045:1,2003-05-03T23:39:00Z,26.2168,-96.4998,1007.82,11111222 
TABS,ioos:station:wmo:42045:1,2003-05-04T00:09:00Z,26.2168,-96.4998,999.25,11111222 
TABS,ioos:station:wmo:42045:1,2003-05-04T00:39:00Z,26.2168,-96.4998,994.56,11111222 
TABS,ioos:station:wmo:42045:1,2003-05-04T01:09:00Z,26.2168,-96.4998,992.4,11111222 
TABS,ioos:station:wmo:42045:1,2003-05-04T01:39:00Z,26.2168,-96.4998,993.03,11111222 
TABS,ioos:station:wmo:42045:1,2003-05-04T02:09:00Z,26.2168,-96.4998,994.37,11111222 
TABS,ioos:station:wmo:42045:1,2003-05-04T02:39:00Z,26.2168,-96.4998,995.89,11111222 
TABS,ioos:station:wmo:42045:1,2003-05-04T03:09:00Z,26.2168,-96.4998,998.05,11111222 
TABS,ioos:station:wmo:42045:1,2003-05-04T03:39:00Z,26.2168,-96.4998,999.51,11111222 
TABS,ioos:station:wmo:42045:1,2003-05-04T04:09:00Z,26.2168,-96.4998,1000.84,11111222 
TABS,ioos:station:wmo:42045:1,2003-05-04T04:39:00Z,26.2168,-96.4998,1001.98,11111222 
TABS,ioos:station:wmo:42045:1,2003-05-04T05:09:00Z,26.2168,-96.4998,1003.0,11111222 
TABS,ioos:station:wmo:42045:1,2003-05-04T05:39:00Z,26.2168,-96.4998,1003.95,11111222 
TABS,ioos:station:wmo:42045:1,2003-05-04T06:09:00Z,26.2168,-96.4998,1005.03,11111222 
TABS,ioos:station:wmo:42045:1,2003-05-04T06:39:00Z,26.2168,-96.4998,1005.35,11111222 
TABS,ioos:station:wmo:42045:1,2003-05-04T07:09:00Z,26.2168,-96.4998,1005.79,11111222 
TABS,ioos:station:wmo:42045:1,2003-05-04T07:39:00Z,26.2168,-96.4998,1006.24,11111222 
TABS,ioos:station:wmo:42045:1,2003-05-04T08:09:00Z,26.2168,-96.4998,1006.62,11111222 
TABS,ioos:station:wmo:42045:1,2003-05-04T08:39:00Z,26.2168,-96.4998,1006.04,11111222 
TABS,ioos:station:wmo:42045:1,2003-05-04T09:09:00Z,26.2168,-96.4998,1005.98,11111222 
TABS,ioos:station:wmo:42045:1,2003-05-04T09:39:00Z,26.2168,-96.4998,1006.43,11111222 
TABS,ioos:station:wmo:42045:1,2003-05-04T10:09:00Z,26.2168,-96.4998,1006.93,11111222 
TABS,ioos:station:wmo:42045:1,2003-05-04T10:39:00Z,26.2168,-96.4998,1007.19,11111222 
TABS,ioos:station:wmo:42045:1,2003-05-04T11:09:00Z,26.2168,-96.4998,1007.95,11111222 
TABS,ioos:station:wmo:42045:1,2003-05-04T11:39:00Z,26.2168,-96.4998,1008.33,11111222 
TABS,ioos:station:wmo:42045:1,2003-05-04T12:09:00Z,26.2168,-96.4998,1008.65,11111222 
TABS,ioos:station:wmo:42045:1,2003-05-04T12:39:00Z,26.2168,-96.4998,1009.22,11111222 
TABS,ioos:station:wmo:42045:1,2003-05-04T13:09:00Z,26.2168,-96.4998,1012.71,11111222 
TABS,ioos:station:wmo:42045:1,2003-05-04T13:40:00Z,26.2168,-96.4998,1017.79,11111222 
TABS,ioos:station:wmo:42045:1,2003-05-04T14:10:00Z,26.2168,-96.4998,1018.68,11111222 
TABS,ioos:station:wmo:42045:1,2003-05-04T14:40:00Z,26.2168,-96.4998,1017.28,11111222 
TABS,ioos:station:wmo:42045:1,2003-05-04T15:10:00Z,26.2168,-96.4998,1024.01,11111222 
TABS,ioos:station:wmo:42045:1,2003-05-04T15:40:00Z,26.2168,-96.4998,1026.99,11111222 
TABS,ioos:station:wmo:42045:1,2003-05-04T16:10:00Z,26.2168,-96.4998,1025.72,11111222 
TABS,ioos:station:wmo:42045:1,2003-05-04T16:40:00Z,26.2168,-96.4998,1020.01,11111222 
TABS,ioos:station:wmo:42045:1,2003-05-04T17:10:00Z,26.2168,-96.4998,1015.19,11111222 
TABS,ioos:station:wmo:42045:1,2003-05-04T17:40:00Z,26.2168,-96.4998,1011.95,11111222 
TABS,ioos:station:wmo:42045:1,2003-05-04T18:10:00Z,26.2168,-96.4998,1010.74,11111222 
TABS,ioos:station:wmo:42045:1,2003-05-04T18:40:00Z,26.2168,-96.4998,1010.3,11111222 
TABS,ioos:station:wmo:42045:1,2003-05-04T19:10:00Z,26.2168,-96.4998,1011.25,11111222 
TABS,ioos:station:wmo:42045:1,2003-05-04T19:39:00Z,26.2168,-96.4998,1013.15,11111222 
TABS,ioos:station:wmo:42045:1,2003-05-04T20:10:00Z,26.2168,-96.4998,1015.0,11111222 
TABS,ioos:station:wmo:42045:1,2003-05-04T20:40:00Z,26.2168,-96.4998,1019.57,11111222 
TABS,ioos:station:wmo:42045:1,2003-05-04T21:09:00Z,26.2168,-96.4998,1019.69,11111222 
TABS,ioos:station:wmo:42045:1,2003-05-04T21:39:00Z,26.2168,-96.4998,1015.57,11111222 
TABS,ioos:station:wmo:42045:1,2003-05-04T22:09:00Z,26.2168,-96.4998,1009.79,11111222 
TABS,ioos:station:wmo:42045:1,2003-05-04T22:39:00Z,26.2168,-96.4998,1005.09,11111222 
TABS,ioos:station:wmo:42045:1,2003-05-04T23:09:00Z,26.2168,-96.4998,1001.86,11111222 
TABS,ioos:station:wmo:42045:1,2003-05-04T23:40:00Z,26.2168,-96.4998,998.75,11111222 
TABS,ioos:station:wmo:42045:1,2003-05-05T00:10:00Z,26.2168,-96.4998,996.65,11111222 
TABS,ioos:station:wmo:42045:1,2003-05-05T00:40:00Z,26.2168,-96.4998,995.51,11111222 
TABS,ioos:station:wmo:42045:1,2003-05-05T01:10:00Z,26.2168,-96.4998,995.19,11111222 
TABS,ioos:station:wmo:42045:1,2003-05-05T01:40:00Z,26.2168,-96.4998,995.57,11111222 
TABS,ioos:station:wmo:42045:1,2003-05-05T02:10:00Z,26.2168,-96.4998,997.03,11111222 
TABS,ioos:station:wmo:42045:1,2003-05-05T02:40:00Z,26.2168,-96.4998,997.86,11111222 
TABS,ioos:station:wmo:42045:1,2003-05-05T03:10:00Z,26.2168,-96.4998,998.3,11111222 
TABS,ioos:station:wmo:42045:1,2003-05-05T03:40:00Z,26.2168,-96.4998,998.87,11111222 
TABS,ioos:station:wmo:42045:1,2003-05-05T04:09:00Z,26.2168,-96.4998,999.63,11111222 
TABS,ioos:station:wmo:42045:1,2003-05-05T04:40:00Z,26.2168,-96.4998,1000.46,11111222 
TABS,ioos:station:wmo:42045:1,2003-05-05T05:10:00Z,26.2168,-96.4998,1001.09,11111222 
TABS,ioos:station:wmo:42045:1,2003-05-05T05:40:00Z,26.2168,-96.4998,1001.47,11111222 
TABS,ioos:station:wmo:42045:1,2003-05-05T06:10:00Z,26.2168,-96.4998,1001.54,11111222 
TABS,ioos:station:wmo:42045:1,2003-05-05T06:39:00Z,26.2168,-96.4998,1001.79,11111222 
TABS,ioos:station:wmo:42045:1,2003-05-05T07:09:00Z,26.2168,-96.4998,1001.54,11111222 
TABS,ioos:station:wmo:42045:1,2003-05-05T07:40:00Z,26.2168,-96.4998,1001.41,11111222 
TABS,ioos:station:wmo:42045:1,2003-05-05T08:10:00Z,26.2168,-96.4998,1001.54,11111222 
TABS,ioos:station:wmo:42045:1,2003-05-05T08:39:00Z,26.2168,-96.4998,1001.86,11111222 
TABS,ioos:station:wmo:42045:1,2003-05-05T09:10:00Z,26.2168,-96.4998,1001.86,11111222 
TABS,ioos:station:wmo:42045:1,2003-05-05T09:40:00Z,26.2168,-96.4998,1001.92,11111222 
TABS,ioos:station:wmo:42045:1,2003-05-05T10:10:00Z,26.2168,-96.4998,1001.79,11111222 
TABS,ioos:station:wmo:42045:1,2003-05-05T10:40:00Z,26.2168,-96.4998,1001.67,11111222 
TABS,ioos:station:wmo:42045:1,2003-05-05T11:10:00Z,26.2168,-96.4998,1001.54,11111222 
TABS,ioos:station:wmo:42045:1,2003-05-05T11:40:00Z,26.2168,-96.4998,1001.86,11111222 
TABS,ioos:station:wmo:42045:1,2003-05-05T12:09:00Z,26.2168,-96.4998,1002.74,11111222 
TABS,ioos:station:wmo:42045:1,2003-05-05T12:40:00Z,26.2168,-96.4998,1006.68,11111222 
TABS,ioos:station:wmo:42045:1,2003-05-05T13:10:00Z,26.2168,-96.4998,1014.49,11111222 
TABS,ioos:station:wmo:42045:1,2003-05-05T13:40:00Z,26.2168,-96.4998,1017.72,11111222 
TABS,ioos:station:wmo:42045:1,2003-05-05T14:10:00Z,26.2168,-96.4998,1016.96,11111222 
TABS,ioos:station:wmo:42045:1,2003-05-05T14:40:00Z,26.2168,-96.4998,1018.87,11111222 
TABS,ioos:station:wmo:42045:1,2003-05-05T15:10:00Z,26.2168,-96.4998,1021.53,11111222 
TABS,ioos:station:wmo:42045:1,2003-05-05T15:40:00Z,26.2168,-96.4998,1018.55,11111222 
TABS,ioos:station:wmo:42045:1,2003-05-05T16:09:00Z,26.2168,-96.4998,1014.93,11111222 
TABS,ioos:station:wmo:42045:1,2003-05-05T16:40:00Z,26.2168,-96.4998,1010.11,11111222 
TABS,ioos:station:wmo:42045:1,2003-05-05T17:10:00Z,26.2168,-96.4998,1005.47,11111222 
TABS,ioos:station:wmo:42045:1,2003-05-05T17:40:00Z,26.2168,-96.4998,1002.49,11111222 
TABS,ioos:station:wmo:42045:1,2003-05-05T18:10:00Z,26.2168,-96.4998,1002.81,11111222 
TABS,ioos:station:wmo:42045:1,2003-05-05T18:40:00Z,26.2168,-96.4998,1003.44,11111222 
TABS,ioos:station:wmo:42045:1,2003-05-05T19:10:00Z,26.2168,-96.4998,1005.85,11111222 
TABS,ioos:station:wmo:42045:1,2003-05-05T19:40:00Z,26.2168,-96.4998,1008.65,11111222 
TABS,ioos:station:wmo:42045:1,2003-05-05T20:10:00Z,26.2168,-96.4998,1011.57,11111222 
TABS,ioos:station:wmo:42045:1,2003-05-05T20:40:00Z,26.2168,-96.4998,1014.17,11111222 
TABS,ioos:station:wmo:42045:1,2003-05-05T21:10:00Z,26.2168,-96.4998,1010.68,11111222 
TABS,ioos:station:wmo:42045:1,2003-05-05T21:39:00Z,26.2168,-96.4998,1008.96,11111222 
TABS,ioos:station:wmo:42045:1,2003-05-05T22:10:00Z,26.2168,-96.4998,1010.17,11111222 
TABS,ioos:station:wmo:42045:1,2003-05-05T22:39:00Z,26.2168,-96.4998,1010.81,11111222 
TABS,ioos:station:wmo:42045:1,2003-05-05T23:09:00Z,26.2168,-96.4998,1006.49,11111222 
TABS,ioos:station:wmo:42045:1,2003-05-05T23:40:00Z,26.2168,-96.4998,998.17,11111222 
TABS,ioos:station:wmo:42045:1,2003-05-06T00:10:00Z,26.2168,-96.4998,993.79,11111222 
TABS,ioos:station:wmo:42045:1,2003-05-06T00:40:00Z,26.2168,-96.4998,989.92,11111222 
TABS,ioos:station:wmo:42045:1,2003-05-06T01:10:00Z,26.2168,-96.4998,988.65,11111222 
TABS,ioos:station:wmo:42045:1,2003-05-06T01:40:00Z,26.2168,-96.4998,989.41,11111222 
TABS,ioos:station:wmo:42045:1,2003-05-06T02:09:00Z,26.2168,-96.4998,991.19,11111222 
TABS,ioos:station:wmo:42045:1,2003-05-06T02:40:00Z,26.2168,-96.4998,992.59,11111222 
TABS,ioos:station:wmo:42045:1,2003-05-06T03:09:00Z,26.2168,-96.4998,994.05,11111222 
TABS,ioos:station:wmo:42045:1,2003-05-06T03:40:00Z,26.2168,-96.4998,994.94,11111222 
TABS,ioos:station:wmo:42045:1,2003-05-06T04:10:00Z,26.2168,-96.4998,995.7,11111222 
TABS,ioos:station:wmo:42045:1,2003-05-06T04:40:00Z,26.2168,-96.4998,996.46,11111222 
TABS,ioos:station:wmo:42045:1,2003-05-06T05:09:00Z,26.2168,-96.4998,996.84,11111222 
TABS,ioos:station:wmo:42045:1,2003-05-06T05:40:00Z,26.2168,-96.4998,997.22,11111222 
TABS,ioos:station:wmo:42045:1,2003-05-06T06:10:00Z,26.2168,-96.4998,997.67,11111222 
TABS,ioos:station:wmo:42045:1,2003-05-06T06:39:00Z,26.2168,-96.4998,997.79,11111222 
TABS,ioos:station:wmo:42045:1,2003-05-06T07:10:00Z,26.2168,-96.4998,998.36,11111222 
TABS,ioos:station:wmo:42045:1,2003-05-06T07:40:00Z,26.2168,-96.4998,998.68,11111222 
TABS,ioos:station:wmo:42045:1,2003-05-06T08:09:00Z,26.2168,-96.4998,999.06,11111222 
TABS,ioos:station:wmo:42045:1,2003-05-06T08:40:00Z,26.2168,-96.4998,999.57,11111222 
TABS,ioos:station:wmo:42045:1,2003-05-06T09:09:00Z,26.2168,-96.4998,1000.33,11111222 
TABS,ioos:station:wmo:42045:1,2003-05-06T09:39:00Z,26.2168,-96.4998,1001.03,11111222 
TABS,ioos:station:wmo:42045:1,2003-05-06T10:10:00Z,26.2168,-96.4998,1001.22,11111222 
TABS,ioos:station:wmo:42045:1,2003-05-06T10:39:00Z,26.2168,-96.4998,1001.35,11111222 
TABS,ioos:station:wmo:42045:1,2003-05-06T11:09:00Z,26.2168,-96.4998,1001.6,11111222 
TABS,ioos:station:wmo:42045:1,2003-05-06T11:39:00Z,26.2168,-96.4998,1001.86,11111222 
TABS,ioos:station:wmo:42045:1,2003-05-06T12:09:00Z,26.2168,-96.4998,1002.87,11111222 
TABS,ioos:station:wmo:42045:1,2003-05-06T12:39:00Z,26.2168,-96.4998,1007.44,11111222 
TABS,ioos:station:wmo:42045:1,2003-05-06T13:09:00Z,26.2168,-96.4998,1012.77,11111222 
TABS,ioos:station:wmo:42045:1,2003-05-06T13:39:00Z,26.2168,-96.4998,1016.65,11111222 
TABS,ioos:station:wmo:42045:1,2003-05-06T14:09:00Z,26.2168,-96.4998,1018.3,11111222 
TABS,ioos:station:wmo:42045:1,2003-05-06T14:39:00Z,26.2168,-96.4998,1016.65,11111222 
TABS,ioos:station:wmo:42045:1,2003-05-06T15:09:00Z,26.2168,-96.4998,1015.25,11111222 
TABS,ioos:station:wmo:42045:1,2003-05-06T15:39:00Z,26.2168,-96.4998,1014.93,11111222 
TABS,ioos:station:wmo:42045:1,2003-05-06T16:09:00Z,26.2168,-96.4998,1014.93,11111222 
TABS,ioos:station:wmo:42045:1,2003-05-06T16:39:00Z,26.2168,-96.4998,1012.33,11111222 
TABS,ioos:station:wmo:42045:1,2003-05-06T17:09:00Z,26.2168,-96.4998,1010.23,11111222 
TABS,ioos:station:wmo:42045:1,2003-05-06T17:39:00Z,26.2168,-96.4998,1009.09,11111222 
TABS,ioos:station:wmo:42045:1,2003-05-06T18:09:00Z,26.2168,-96.4998,1009.16,11111222 
TABS,ioos:station:wmo:42045:1,2003-05-06T18:39:00Z,26.2168,-96.4998,1009.16,11111222 
TABS,ioos:station:wmo:42045:1,2003-05-06T19:09:00Z,26.2168,-96.4998,1009.79,11111222 
TABS,ioos:station:wmo:42045:1,2003-05-06T19:39:00Z,26.2168,-96.4998,1013.73,11111222 